1501232400.99,6231,19.13,73706.5,14.89,4.45,4.41,0,*7B
1501232402.17,6232,19.19,73706.5,14.89,4.53,4.45,0,*7B
1501232403.38,6233,19.13,73700.3,14.91,4.37,4.33,0,*70
1501232404.64,6234,19.13,73704.0,14.91,3.75,3.49,0,*7C
1501232405.87,6235,19.13,73706.0,14.93,3.79,3.49,0,*73
1501232407.07,6236,19.13,73706.0,14.91,4.23,4.07,0,*77
1501232408.25,6237,19.13,73698.8,14.93,4.45,4.37,0,*77
1501232409.45,6238,19.13,73700.8,14.93,3.59,3.37,0,*75
1501232410.7,6239,19.13,73702.3,14.91,3.97,3.79,0,*7E
1501232411.88,6240,19.13,73700.0,14.93,4.37,4.11,0,*76
1501232413.09,6241,19.13,73702.5,14.93,4.31,3.89,0,*77
1501232414.27,6242,19.13,73700.8,14.93,4.23,3.89,0,*77
1501232415.5,6243,19.13,73700.8,14.95,4.71,4.41,0,*74
1501232416.76,6244,19.13,73702.0,14.95,3.71,3.23,0,*77
1501232417.98,6245,19.13,73702.3,14.99,3.85,3.49,0,*7D
1501232419.18,6246,19.13,73702.5,14.99,4.07,3.85,0,*73
1501232420.39,6247,19.13,73700.5,14.95,4.33,4.23,0,*72
1501232421.59,6248,19.13,73704.8,14.95,4.23,4.23,0,*7C
1501232422.85,6249,19.13,73706.3,14.95,3.67,3.33,0,*7C
1501232424.05,6250,19.13,73706.5,14.99,2.31,1.83,0,*73
1501232425.28,6251,19.13,73702.8,14.93,2.25,1.85,0,*7B
1501232426.53,6252,19.13,73704.5,14.91,2.13,1.71,0,*74
1501232427.75,6253,19.13,73704.3,14.93,2.05,1.71,0,*70
1501232428.99,6254,19.13,73702.5,14.91,2.05,1.47,0,*70
1501232430.21,6255,19.13,73706.5,14.89,1.93,1.47,0,*74
1501232431.46,6256,19.13,73702.0,14.87,2.89,2.47,0,*72
1501232432.69,6257,19.13,73706.0,14.89,3.23,2.81,0,*76
1501232433.92,6258,19.13,73700.5,14.87,2.95,2.47,0,*71
1501232435.15,6259,19.13,73702.3,14.89,3.23,2.77,0,*71
1501232436.39,6260,19.13,73700.8,14.91,3.53,3.19,0,*7C
1501232437.63,6261,19.13,73702.5,14.93,3.41,3.15,0,*70
1501232438.85,6262,19.13,73702.8,14.93,2.69,2.43,0,*7A
1501232440.07,6263,19.13,73702.8,14.91,1.83,1.59,0,*76
1501232441.29,6264,19.13,73704.0,14.91,2.35,2.25,0,*77
1501232442.54,6265,19.13,73702.8,14.91,2.77,2.69,0,*78
1501232443.74,6266,19.13,73704.5,14.93,3.03,2.95,0,*78
1501232444.97,6267,19.13,73702.8,14.93,2.69,2.69,0,*77
1501232446.17,6268,19.13,73704.8,14.93,2.31,2.43,0,*7D
1501232447.39,6269,19.13,73702.0,14.93,2.21,2.43,0,*7D
1501232448.62,6270,19.13,73702.0,14.95,1.89,2.27,0,*70
1501232449.87,6271,19.13,73702.5,14.99,2.01,2.51,0,*7F
1501232451.13,6272,19.13,73702.8,14.95,1.97,2.47,0,*7B
1501232452.39,6273,19.13,73706.0,14.95,1.97,2.51,0,*7D
1501232453.62,6274,19.13,73702.8,14.99,1.83,2.51,0,*73
1501232454.86,6275,19.13,73700.3,14.99,0.63,1.55,0,*4A
1501232456.07,6276,19.13,73704.0,14.95,0.17,1.05,0,*43
1501232457.29,6277,19.13,73704.5,14.95,0.71,1.79,0,*49
1501232458.55,6278,19.13,73702.3,14.95,1.97,3.19,0,*7B
1501232459.77,6279,19.13,73706.3,14.95,2.61,3.71,0,*7E
1501232461.0,6280,19.13,73704.0,14.95,2.61,3.75,0,*7C
1501232462.23,6281,19.13,73704.5,14.99,2.21,3.25,0,*70
1501232463.45,6282,19.13,73702.8,15.01,1.89,2.89,0,*75
1501232464.66,6283,19.13,73704.5,15.01,2.65,3.71,0,*73
1501232465.89,6284,19.13,73700.0,15.01,2.39,3.45,0,*7A
1501232467.12,6285,19.13,73702.5,15.03,2.05,2.91,0,*7E
1501232468.35,6286,19.13,73702.3,15.01,2.89,3.75,0,*70
1501232469.52,6287,19.13,73704.8,15.05,3.63,4.45,0,*74
1501232470.75,6288,19.13,73704.0,15.07,3.45,4.15,0,*78
1501232471.95,6289,19.13,73704.0,15.11,3.81,4.41,0,*77
1501232473.16,6290,19.13,73702.0,15.11,3.85,4.41,0,*7B
1501232474.36,6291,19.13,73702.8,15.13,3.75,4.33,0,*72
1501232475.57,6292,19.13,73704.8,15.15,3.93,4.45,0,*7E
1501232476.8,6293,19.13,73704.0,15.17,3.79,4.23,0,*79
1501232478.03,6294,19.13,73704.5,15.21,3.79,4.15,0,*7E
1501232479.26,6295,19.13,73704.8,15.21,3.79,4.15,0,*7F
1501232480.46,6296,19.06,73702.3,15.23,4.01,4.53,0,*74
1501232481.68,6297,19.13,73702.8,15.25,4.01,4.45,0,*74
1501232482.89,6298,19.13,73700.8,15.27,4.05,4.49,0,*71
1501232484.12,6299,19.13,73702.8,15.29,3.89,4.31,0,*72
1501232485.36,6300,19.13,73706.3,15.29,3.33,3.79,0,*79
1501232486.54,6301,19.13,73704.3,15.27,3.63,4.15,0,*7E
1501232487.74,6302,19.13,73706.0,15.29,3.89,4.37,0,*77
1501232488.92,6303,19.13,73706.5,15.31,3.93,4.53,0,*76
1501232490.15,6304,19.13,73700.8,15.33,3.75,4.23,0,*7C
1501232491.41,6305,19.13,73704.8,15.33,3.75,4.31,0,*7E
1501232492.64,6306,19.13,73708.0,15.37,4.11,4.67,0,*7F
1501232493.86,6307,19.13,73702.5,15.37,4.57,5.05,0,*79
1501232495.07,6308,19.13,73702.3,15.43,4.67,5.11,0,*73
1501232496.24,6309,19.13,73700.3,15.43,4.57,5.15,0,*75
1501232497.44,6310,19.13,73702.8,15.47,4.81,5.27,0,*73
1501232498.63,6311,19.13,73702.5,15.49,5.33,5.77,0,*71
1501232499.83,6312,19.13,73702.5,15.51,5.29,5.71,0,*76
1501232501.01,6313,19.13,73706.8,15.53,5.67,5.95,0,*75
1501232502.23,6314,19.13,73706.8,15.55,5.77,5.99,0,*79
1501232503.44,6315,19.13,73706.3,15.59,5.07,5.23,0,*72
1501232504.61,6316,19.13,73702.8,15.61,5.49,5.45,0,*70
1501232505.81,6317,19.13,73702.3,15.67,6.11,5.99,0,*78
1501232507.01,6318,19.13,73704.8,15.69,6.57,6.25,0,*7F
1501232508.24,6319,19.13,73700.8,15.73,6.73,6.35,0,*72
1501232509.44,6320,19.13,73702.5,15.77,6.43,5.95,0,*76
1501232510.66,6321,19.13,73704.3,15.79,5.77,5.19,0,*79
1501232511.86,6322,19.13,73706.5,15.81,5.67,4.85,0,*78
1501232513.08,6323,19.13,73704.8,15.81,5.33,4.31,0,*77
1501232514.28,6324,19.13,73702.5,15.85,5.59,4.53,0,*7C
1501232515.52,6325,19.13,73702.8,15.89,4.97,3.79,0,*7D
1501232516.77,6326,19.13,73702.8,15.89,4.97,3.79,0,*7E
1501232517.98,6327,19.13,73704.8,15.91,5.55,4.31,0,*72
1501232519.15,6328,19.13,73702.5,15.91,5.71,4.53,0,*7F
1501232520.31,6329,19.13,73702.8,15.91,5.71,4.27,0,*7D
1501232521.5,6330,19.13,73706.8,15.93,5.45,3.93,0,*78
1501232522.7,6331,19.13,73702.8,15.95,5.93,4.33,0,*79
1501232523.93,6332,19.13,73700.5,16.01,6.13,4.41,0,*7A
1501232525.1,6333,19.13,73702.3,16.03,6.29,4.49,0,*78
1501232526.28,6334,19.13,73706.0,16.03,6.03,4.07,0,*7D
1501232527.5,6335,19.13,73702.8,16.05,6.07,3.97,0,*70
1501232528.69,6336,19.13,73706.5,16.07,6.07,4.01,0,*79
1501232529.87,6337,19.13,73704.3,16.11,5.99,3.89,0,*7C
1501232531.09,6338,19.13,73700.3,16.11,5.93,3.79,0,*76
1501232532.31,6339,19.13,73704.5,16.13,6.25,3.89,0,*74
1501232533.54,6340,19.13,73704.3,16.13,6.11,3.71,0,*7A
1501232534.77,6341,19.13,73704.8,16.17,5.49,3.11,0,*77
1501232536.0,6342,19.13,73704.5,16.17,5.45,2.81,0,*70
1501232537.21,6343,19.13,73700.3,16.19,4.89,2.43,0,*70
1501232538.42,6344,19.13,73706.3,16.19,4.45,1.85,0,*7E
1501232539.65,6345,19.13,73704.3,16.17,3.93,1.59,0,*7C
1501232540.88,6346,19.13,73704.8,16.17,4.23,2.17,0,*7A
1501232542.08,6347,19.13,73702.0,16.17,4.19,2.27,0,*71
1501232543.28,6348,19.13,73706.5,16.15,3.97,2.27,0,*7D
1501232544.48,6349,19.13,73702.5,16.15,5.27,3.85,0,*78
1501232545.74,6350,19.13,73704.8,16.17,5.81,4.67,0,*75
1501232546.95,6351,19.13,73704.5,16.17,5.33,4.41,0,*79
1501232548.13,6352,19.13,73702.0,16.19,5.37,4.53,0,*73
1501232549.34,6353,19.13,73700.8,16.19,5.01,4.45,0,*70
1501232550.56,6354,19.13,73702.8,16.19,4.93,4.57,0,*7E
1501232551.75,6355,19.13,73706.5,16.19,4.23,3.89,0,*70
1501232552.98,6356,19.13,73700.5,16.21,4.71,4.49,0,*74
1501232554.16,6357,19.13,73704.3,16.19,4.33,4.11,0,*75
1501232555.37,6358,19.13,73700.3,16.19,4.11,3.97,0,*73
1501232556.58,6359,19.13,73702.8,16.19,4.11,4.01,0,*7A
1501232557.78,6360,19.13,73704.3,16.19,4.37,4.37,0,*71
1501232558.99,6361,19.13,73700.5,16.19,4.81,5.05,0,*7D
1501232560.18,6362,19.13,73704.3,16.19,4.89,5.19,0,*7B
1501232561.39,6363,19.13,73702.5,16.19,4.79,5.07,0,*7A
1501232562.62,6364,19.13,73700.5,16.21,5.41,5.77,0,*7B
1501232563.84,6365,19.13,73700.8,16.23,5.77,6.13,0,*7C
1501232565.04,6366,19.13,73702.0,16.23,5.71,6.13,0,*79
1501232566.22,6367,19.13,73700.3,16.23,5.67,6.03,0,*7E
1501232567.43,6368,19.13,73704.5,16.23,5.71,6.13,0,*77
1501232568.63,6369,19.13,73700.0,16.27,5.37,5.73,0,*75
1501232569.81,6370,19.13,73702.3,16.27,5.11,5.37,0,*79
1501232571.02,6371,19.13,73706.0,16.27,5.51,5.95,0,*74
1501232572.19,6372,19.13,73706.0,16.23,5.15,5.49,0,*72
1501232573.4,6373,19.13,73700.8,16.23,4.85,4.93,0,*7D
1501232574.59,6374,19.13,73702.8,16.27,5.11,5.19,0,*71
1501232575.83,6375,19.13,73702.3,16.23,4.67,4.67,0,*7C
1501232577.01,6376,19.13,73702.8,16.23,4.45,4.33,0,*7E
1501232578.22,6377,19.13,73702.8,16.23,4.31,4.19,0,*74
1501232579.44,6378,19.13,73702.8,16.21,4.23,4.01,0,*73
1501232580.68,6379,19.13,73702.5,16.19,4.79,4.59,0,*7B
1501232581.89,6380,19.13,73702.8,16.19,4.59,4.37,0,*77
1501232583.1,6381,19.13,73702.8,16.19,4.27,3.97,0,*72
1501232584.31,6382,19.13,73702.8,16.19,3.97,3.55,0,*73
1501232585.56,6383,19.13,73702.0,16.17,3.53,3.23,0,*75
1501232586.76,6384,19.13,73700.5,16.15,4.67,4.45,0,*77
1501232588.0,6385,19.13,73700.8,16.15,5.05,4.79,0,*7C
1501232589.18,6386,19.13,73700.0,16.15,5.59,5.45,0,*78
1501232590.38,6387,19.13,73700.3,16.17,5.45,5.15,0,*73
1501232591.61,6388,19.13,73702.3,16.17,5.23,5.05,0,*7D
1501232592.8,6389,19.13,73704.5,16.19,5.37,5.19,0,*7A
1501232594.0,6390,19.13,73702.5,16.21,5.07,4.85,0,*7E
1501232595.25,6391,19.13,73702.5,16.19,5.05,4.93,0,*71
1501232596.43,6392,19.13,73704.8,16.19,4.49,4.37,0,*75
1501232597.64,6393,19.13,73702.5,16.21,5.23,5.19,0,*7F
1501232598.83,6394,19.13,73702.8,16.19,5.07,5.19,0,*75
1501232600.07,6395,19.13,73700.5,16.23,4.97,4.97,0,*72
1501232601.25,6396,19.13,73702.0,16.23,4.85,4.89,0,*7D
1501232602.45,6397,19.13,73702.0,16.27,5.27,5.29,0,*7A
1501232603.66,6398,19.13,73702.0,16.27,4.81,5.01,0,*72
1501232604.85,6399,19.13,73700.5,16.27,4.81,5.19,0,*7A
1501232606.07,6400,19.13,73702.5,16.31,4.93,5.23,0,*70
1501232607.28,6401,19.13,73700.5,16.31,4.97,5.33,0,*74
1501232608.49,6402,19.13,73700.0,16.33,4.89,5.37,0,*7E
1501232609.75,6403,19.13,73702.0,16.33,4.97,5.55,0,*74
1501232610.96,6404,19.13,73702.5,16.39,4.93,5.63,0,*78
1501232612.16,6405,19.13,73700.8,16.41,5.07,5.95,0,*73
1501232613.36,6406,19.13,73700.8,16.41,5.29,6.11,0,*73
1501232614.59,6407,19.13,73700.3,16.45,5.01,5.93,0,*75
1501232615.8,6408,19.13,73700.5,16.49,5.41,6.43,0,*7C
1501232616.97,6409,19.13,73696.8,16.49,5.67,6.75,0,*7C
1501232618.16,6410,19.13,73700.5,16.53,5.29,6.57,0,*75
1501232619.33,6411,19.13,73700.5,16.53,5.11,6.29,0,*76
1501232620.58,6412,19.13,73700.0,16.59,5.27,6.43,0,*76
1501232621.78,6413,19.13,73702.8,16.61,4.97,6.21,0,*72
1501232623.03,6414,19.13,73700.3,16.63,4.59,5.85,0,*78
1501232624.25,6415,19.13,73704.0,16.63,4.57,5.77,0,*7A
1501232625.47,6416,19.13,73704.3,16.63,4.75,6.07,0,*7D
1501232626.72,6417,19.13,73700.8,16.67,5.27,6.51,0,*7D
1501232627.92,6418,19.13,73702.3,16.67,5.59,6.83,0,*74
1501232629.09,6419,19.13,73700.8,16.73,5.67,6.79,0,*78
1501232630.29,6420,19.13,73702.5,16.73,5.99,7.19,0,*74
1501232631.52,6421,19.13,73702.5,16.75,5.89,7.05,0,*7F
1501232632.74,6422,19.13,73698.3,16.77,5.95,7.11,0,*76
1501232633.97,6423,19.13,73700.8,16.81,5.77,6.97,0,*7D
1501232635.16,6424,19.13,73702.8,16.83,5.81,7.01,0,*7F
1501232636.39,6425,19.13,73700.8,16.85,6.03,7.11,0,*70
1501232637.61,6426,19.13,73700.3,16.85,5.63,6.61,0,*70
1501232638.82,6427,19.13,73702.5,16.89,6.03,7.05,0,*7B
1501232640.07,6428,19.13,73704.3,16.89,5.27,6.35,0,*73
1501232641.24,6429,19.13,73700.3,16.91,4.45,5.49,0,*76
1501232642.43,6430,19.13,73702.5,16.91,4.19,5.15,0,*7E
1501232643.66,6431,19.13,73700.3,16.91,3.97,4.79,0,*75
1501232644.87,6432,19.13,73702.3,16.91,4.23,5.01,0,*70
1501232646.08,6433,19.13,73704.8,16.91,4.19,4.79,0,*76
1501232647.31,6434,19.13,73704.0,16.91,4.67,5.27,0,*72
1501232648.5,6435,19.13,73704.0,16.91,5.37,5.89,0,*73
1501232649.71,6436,19.13,73702.0,16.93,5.33,6.03,0,*77
1501232650.9,6437,19.13,73704.3,16.93,4.41,5.29,0,*79
1501232652.15,6438,19.13,73702.3,16.93,4.63,5.73,0,*79
1501232653.37,6439,19.13,73702.5,16.95,5.81,7.15,0,*71
1501232654.6,6440,19.13,73700.8,16.97,7.05,8.33,0,*78
1501232655.85,6441,19.13,73702.8,17.05,7.23,8.47,0,*74
1501232657.07,6442,19.13,73700.8,17.07,6.73,7.83,0,*76
1501232658.33,6443,19.13,73700.5,17.11,6.43,7.19,0,*70
1501232659.59,6444,19.13,73700.3,17.11,6.43,7.11,0,*7F
1501232660.82,6445,19.13,73702.5,17.15,6.97,7.47,0,*70
1501232662.08,6446,19.13,73702.0,17.15,7.27,7.77,0,*7A
1501232663.29,6447,19.13,73702.3,17.21,7.55,8.13,0,*74
1501232664.55,6448,19.13,73702.5,17.23,7.15,7.95,0,*7C
1501232665.75,6449,19.13,73702.0,17.29,7.11,7.97,0,*71
1501232666.97,6450,19.13,73698.0,17.33,6.69,7.83,0,*79
1501232668.22,6451,19.13,73702.5,17.35,6.61,7.83,0,*76
1501232669.47,6452,19.13,73700.5,17.39,6.39,7.77,0,*7F
1501232670.71,6453,19.13,73702.0,17.41,6.17,7.77,0,*7D
1501232671.93,6454,19.13,73700.8,17.45,5.77,7.47,0,*78
1501232673.14,6455,19.13,73702.5,17.49,4.79,6.61,0,*7F
1501232674.34,6456,19.13,73704.3,17.49,4.19,5.93,0,*74
1501232675.56,6457,19.13,73700.8,17.51,3.53,5.29,0,*74
1501232676.79,6458,19.13,73702.3,17.51,2.95,4.79,0,*74
1501232677.96,6459,19.13,73700.0,17.49,2.27,4.23,0,*7A
1501232679.18,6460,19.13,73700.8,17.51,2.13,4.11,0,*7F
1501232680.39,6461,19.13,73700.3,17.49,1.71,3.81,0,*7E
1501232681.62,6462,19.13,73702.5,17.49,1.67,4.05,0,*71
1501232682.84,6463,19.13,73702.5,17.43,1.85,4.15,0,*77
1501232684.07,6464,19.13,73702.0,17.45,1.67,4.01,0,*7F
1501232685.29,6465,19.13,73702.0,17.43,1.71,4.11,0,*7E
1501232686.51,6466,19.13,73704.0,17.41,0.75,3.15,0,*49
1501232687.71,6467,19.13,73700.3,17.41,1.41,3.97,0,*74
1501232688.97,6468,19.13,73700.8,17.39,1.97,4.67,0,*77
1501232690.23,6469,19.13,73700.8,17.39,1.13,3.75,0,*7E
1501232691.47,6470,19.13,73700.3,17.37,1.13,3.75,0,*78
1501232692.69,6471,19.13,73702.8,17.35,1.43,4.19,0,*73
1501232693.88,6472,19.13,73700.8,17.33,1.89,4.81,0,*71
1501232695.08,6473,19.13,73702.3,17.33,2.01,4.81,0,*73
1501232696.33,6474,19.13,73700.0,17.31,2.21,4.93,0,*77
1501232697.57,6475,19.13,73700.8,17.31,2.27,5.05,0,*7E
1501232698.77,6476,19.13,73700.5,17.29,2.31,4.79,0,*79
1501232700.0,6477,19.13,73702.3,17.27,2.35,4.59,0,*70
1501232701.2,6478,19.13,73700.0,17.27,3.25,5.49,0,*7F
1501232702.4,6479,19.13,73702.5,17.21,3.29,5.27,0,*7C
1501232703.63,6480,19.13,73700.3,17.19,3.11,4.89,0,*7F
1501232704.85,6481,19.13,73702.3,17.17,2.55,4.31,0,*72
1501232706.05,6482,19.13,73700.5,17.17,2.89,4.41,0,*77
1501232707.28,6483,19.13,73702.5,17.15,3.11,4.45,0,*70
1501232708.48,6484,19.13,73702.5,17.13,3.23,4.27,0,*74
1501232709.66,6485,19.13,73696.8,17.09,2.91,3.63,0,*71
1501232710.9,6486,19.13,73700.0,17.05,2.85,3.53,0,*78
1501232712.08,6487,19.13,73700.0,16.99,2.95,3.59,0,*76
1501232713.28,6488,19.13,73698.3,16.95,2.61,3.15,0,*76
1501232714.51,6489,19.13,73700.0,16.95,2.43,3.11,0,*73
1501232715.72,6490,19.19,73700.8,16.87,3.25,3.75,0,*7B
1501232716.92,6491,19.13,73700.3,16.87,3.97,4.45,0,*77
1501232718.12,6492,19.13,73702.5,16.85,3.89,4.15,0,*7C
1501232719.35,6493,19.13,73698.8,16.83,4.63,4.75,0,*7E
1501232720.62,6494,19.19,73698.8,16.81,4.59,4.71,0,*76
1501232721.87,6495,19.19,73698.8,16.77,4.93,5.05,0,*7A
1501232723.08,6496,19.19,73700.5,16.77,4.53,4.57,0,*73
1501232724.26,6497,19.19,73700.0,16.73,4.11,4.27,0,*77
1501232725.45,6498,19.19,73698.0,16.69,3.63,3.67,0,*72
1501232726.65,6499,19.19,73700.8,16.69,3.89,4.01,0,*70
1501232727.84,6500,19.19,73698.8,16.65,3.89,3.89,0,*7A
1501232729.06,6501,19.13,73696.0,16.63,3.97,4.15,0,*70
1501232730.26,6502,19.19,73696.8,16.63,4.27,4.49,0,*76
1501232731.45,6503,19.19,73696.8,16.61,4.01,4.27,0,*79
1501232732.72,6504,19.19,73696.3,16.59,3.11,3.41,0,*74
1501232733.95,6505,19.19,73698.5,16.55,3.97,4.41,0,*70
1501232735.18,6506,19.19,73702.0,16.51,4.49,5.05,0,*72
1501232736.39,6507,19.19,73698.8,16.53,4.41,5.01,0,*7D
1501232737.6,6508,19.19,73702.5,16.51,4.45,5.15,0,*71
1501232738.83,6509,19.19,73698.8,16.51,5.07,5.85,0,*7E
1501232740.07,6510,19.19,73698.0,16.51,4.71,5.63,0,*7E
1501232741.27,6511,19.19,73702.0,16.51,4.57,5.29,0,*75
1501232742.48,6512,19.19,73698.5,16.51,4.57,5.41,0,*78
1501232743.71,6513,19.19,73700.8,16.49,4.97,5.73,0,*7D
1501232744.94,6514,19.19,73700.8,16.47,5.27,6.03,0,*7A
1501232746.16,6515,19.19,73702.3,16.47,5.49,6.17,0,*76
1501232747.39,6516,19.19,73700.0,16.47,5.59,6.17,0,*74
1501232748.63,6517,19.19,73700.0,16.51,6.07,6.47,0,*7F
1501232749.86,6518,19.19,73698.8,16.47,6.51,7.01,0,*77
1501232751.09,6519,19.19,73702.0,16.47,6.07,6.51,0,*71
1501232752.32,6520,19.19,73696.0,16.47,5.93,6.21,0,*72
1501232753.53,6521,19.19,73700.0,16.47,5.11,5.49,0,*74
1501232754.74,6522,19.19,73700.0,16.49,5.89,6.25,0,*71
1501232755.97,6523,19.19,73700.0,16.47,6.11,6.43,0,*7C
1501232757.21,6524,19.19,73702.5,16.47,5.93,6.03,0,*76
1501232758.44,6525,19.19,73702.8,16.47,5.11,5.27,0,*78
1501232759.65,6526,19.19,73700.3,16.45,4.63,4.85,0,*74
1501232760.87,6527,19.19,73700.0,16.43,5.27,5.51,0,*7A
1501232762.05,6528,19.19,73700.5,16.43,5.07,5.33,0,*73
1501232763.24,6529,19.19,73700.3,16.43,5.07,5.19,0,*7A
1501232764.45,6530,19.19,73698.3,16.39,4.89,5.01,0,*71
1501232765.63,6531,19.19,73700.0,16.39,5.11,5.29,0,*7A
1501232766.87,6532,19.19,73702.0,16.37,4.89,4.93,0,*77
1501232768.1,6533,19.19,73700.5,16.33,4.57,4.67,0,*7A
1501232769.37,6534,19.19,73702.0,16.33,4.75,4.75,0,*7E
1501232770.63,6535,19.19,73702.5,16.29,4.93,5.01,0,*7E
1501232771.88,6536,19.19,73700.3,16.27,4.93,4.93,0,*79
1501232773.06,6537,19.19,73700.0,16.27,4.89,4.89,0,*78
1501232774.28,6538,19.19,73700.5,16.23,5.27,5.27,0,*73
1501232775.46,6539,19.19,73706.3,16.23,5.33,5.37,0,*76
1501232776.67,6540,19.19,73702.0,16.23,5.33,5.27,0,*79
1501232777.93,6541,19.19,73702.0,16.21,4.93,4.93,0,*7F
1501232779.17,6542,19.19,73698.5,16.21,4.85,4.71,0,*77
1501232780.41,6543,19.19,73702.8,16.19,4.79,4.71,0,*7E
1501232781.59,6544,19.19,73702.0,16.15,4.53,4.45,0,*7A
1501232782.82,6545,19.19,73700.5,16.13,4.63,4.49,0,*72
1501232784.01,6546,19.19,73700.3,16.11,4.63,4.49,0,*73
1501232785.24,6547,19.19,73700.3,16.11,4.71,4.59,0,*70
1501232786.4,6548,19.19,73702.3,16.07,4.45,4.27,0,*76
1501232787.57,6549,19.19,73704.0,16.07,4.57,4.37,0,*75
1501232788.77,6550,19.19,73706.3,16.03,4.71,4.49,0,*74
1501232790.02,6551,19.19,73706.8,16.01,4.97,4.97,0,*7C
1501232791.24,6552,19.19,73700.0,16.01,4.15,4.05,0,*7E
1501232792.44,6553,19.19,73702.5,15.97,3.81,3.63,0,*7E
1501232793.61,6554,19.19,73702.0,15.95,4.07,4.07,0,*77
1501232794.86,6555,19.19,73700.0,15.93,4.31,4.31,0,*70
1501232796.04,6556,19.19,73700.8,15.91,5.19,5.19,0,*71
1501232797.26,6557,19.19,73702.5,15.91,4.75,4.75,0,*70
1501232798.46,6558,19.19,73702.3,15.89,4.85,4.85,0,*76
1501232799.71,6559,19.19,73702.5,15.85,5.05,5.05,0,*7B
1501232800.88,6560,19.19,73700.8,15.83,4.89,4.89,0,*77
1501232802.05,6561,19.19,73702.5,15.83,4.85,4.89,0,*7A
1501232803.27,6562,19.19,73702.5,15.81,4.85,4.97,0,*74
1501232804.48,6563,19.19,73700.0,15.79,4.33,4.33,0,*71
1501232805.71,6564,19.19,73702.0,15.79,5.27,5.27,0,*76
1501232806.93,6565,19.19,73702.5,15.75,5.71,5.73,0,*79
1501232808.12,6566,19.19,73704.0,15.77,5.29,5.51,0,*75
1501232809.31,6567,19.19,73700.0,15.77,5.19,5.27,0,*76
1501232810.5,6568,19.19,73700.8,15.75,5.41,5.49,0,*7E
1501232811.73,6569,19.19,73702.0,15.75,4.93,4.89,0,*7C
1501232812.98,6570,19.19,73702.5,15.71,4.93,5.05,0,*75
1501232814.17,6571,19.19,73702.8,15.71,5.45,5.45,0,*7A
1501232815.37,6572,19.19,73702.5,15.71,5.23,5.33,0,*78
1501232816.57,6573,19.19,73698.8,15.69,4.97,5.07,0,*79
1501232817.76,6574,19.19,73704.3,15.69,4.75,4.81,0,*7D
1501232819.02,6575,19.19,73702.8,15.67,4.67,4.71,0,*7E
1501232820.25,6576,19.19,73704.0,15.63,4.53,4.63,0,*7D
1501232821.45,6577,19.19,73704.5,15.63,4.27,4.27,0,*7F
1501232822.66,6578,19.19,73706.5,15.59,4.27,4.37,0,*78
1501232823.89,6579,19.19,73700.5,15.59,4.75,4.85,0,*77
1501232825.12,6580,19.19,73702.3,15.55,5.01,5.07,0,*74
1501232826.33,6581,19.19,73700.8,15.55,5.19,5.19,0,*73
1501232827.52,6582,19.19,73704.5,15.53,5.11,5.23,0,*77
1501232828.7,6583,19.19,73702.0,15.53,5.15,5.23,0,*72
1501232829.96,6584,19.19,73702.8,15.51,4.63,4.75,0,*75
1501232831.19,6585,19.19,73700.0,15.51,4.31,4.41,0,*74
1501232832.42,6586,19.19,73704.5,15.49,4.59,4.59,0,*79
1501232833.61,6587,19.13,73700.0,15.45,4.23,4.23,0,*74
1501232834.84,6588,19.19,73704.0,15.47,4.67,4.79,0,*76
1501232836.09,6589,19.13,73700.8,15.45,4.59,4.67,0,*77
1501232837.29,6590,19.19,73702.5,15.39,4.71,4.81,0,*76
1501232838.46,6591,19.19,73702.5,15.39,4.41,4.49,0,*70
1501232839.63,6592,19.13,73700.5,15.39,4.11,4.19,0,*73
1501232840.83,6593,19.19,73702.5,15.37,4.45,4.57,0,*77
1501232842.02,6594,19.13,73702.0,15.33,4.81,4.89,0,*7F
1501232843.23,6595,19.13,73702.8,15.31,4.89,4.93,0,*7F
1501232844.48,6596,19.13,73702.0,15.33,4.79,4.75,0,*79
1501232845.69,6597,19.19,73702.5,15.31,4.33,4.31,0,*74
1501232846.91,6598,19.13,73698.5,15.31,4.63,4.67,0,*7D
1501232848.17,6599,19.13,73702.3,15.29,4.71,4.71,0,*71
1501232849.41,6600,19.13,73700.3,15.27,4.75,4.75,0,*7C
1501232850.58,6601,19.19,73706.0,15.27,4.33,4.27,0,*78
1501232851.84,6602,19.13,73700.0,15.25,4.67,4.71,0,*7B
1501232853.02,6603,19.13,73698.5,15.23,4.19,4.11,0,*73
1501232854.21,6604,19.13,73700.5,15.17,4.23,4.15,0,*7E
1501232855.44,6605,19.19,73706.0,15.21,4.49,4.59,0,*7E
1501232856.64,6606,19.13,73704.0,15.17,4.57,4.57,0,*79
1501232857.85,6607,19.13,73702.0,15.17,4.27,4.37,0,*79
1501232859.02,6608,19.13,73700.8,15.13,4.19,4.23,0,*7A
1501232860.28,6609,19.13,73706.0,15.11,4.59,4.67,0,*7D
1501232861.45,6610,19.19,73706.3,15.13,4.45,4.45,0,*7A
1501232862.65,6611,19.13,73704.8,15.11,4.33,4.33,0,*79
1501232863.84,6612,19.13,73702.0,15.09,4.37,4.37,0,*73
1501232865.06,6613,19.13,73700.8,15.09,4.67,4.63,0,*76
1501232866.26,6614,19.19,73706.5,15.05,4.57,4.59,0,*77
1501232867.44,6615,19.13,73700.0,15.05,4.57,4.57,0,*78
1501232868.64,6616,19.13,73700.0,15.05,4.71,4.81,0,*74
1501232869.91,6617,19.13,73702.5,15.03,4.71,4.75,0,*78
1501232871.14,6618,19.13,73700.5,15.01,4.75,4.67,0,*72
1501232872.32,6619,19.13,73702.5,15.01,4.45,4.53,0,*77
1501232873.58,6620,19.13,73700.5,14.95,4.75,4.75,0,*76
1501232874.83,6621,19.13,73704.0,14.99,4.75,4.79,0,*77
1501232876.09,6622,19.13,73704.0,14.95,5.05,5.05,0,*74
1501232877.34,6623,19.13,73702.0,14.99,4.75,4.79,0,*75
1501232878.54,6624,19.13,73702.0,14.95,4.81,4.85,0,*76
1501232879.75,6625,19.13,73702.8,14.95,5.11,5.11,0,*73
1501232880.99,6626,19.13,73702.0,14.93,5.05,5.01,0,*72
1501232882.22,6627,19.13,73704.8,14.93,4.79,4.71,0,*7F
1501232883.42,6628,19.13,73702.0,14.91,4.89,4.89,0,*7A
1501232884.62,6629,19.13,73702.5,14.89,5.27,5.19,0,*7F
1501232885.8,6630,19.13,73700.8,14.89,5.23,5.15,0,*7F
1501232886.98,6631,19.13,73704.5,14.89,5.15,5.15,0,*7B
1501232888.16,6632,19.13,73702.0,14.89,5.33,5.33,0,*78
1501232889.34,6633,19.13,73702.0,14.89,5.11,5.11,0,*79
1501232890.58,6634,19.13,73704.3,14.89,5.01,5.01,0,*7E
1501232891.81,6635,19.13,73704.3,14.87,4.81,4.75,0,*7A
1501232893.08,6636,19.13,73706.0,14.87,4.71,4.75,0,*76
1501232894.28,6637,19.13,73700.3,14.89,4.53,4.59,0,*77
1501232895.51,6638,19.13,73702.0,14.85,4.97,4.97,0,*7E
1501232896.74,6639,19.13,73702.8,14.85,4.93,4.93,0,*7F
1501232897.91,6640,19.13,73704.0,14.85,4.49,4.37,0,*78
1501232899.17,6641,19.13,73704.5,14.83,4.71,4.71,0,*76
1501232900.37,6642,19.13,73704.0,14.83,4.81,4.81,0,*75
1501232901.63,6643,19.13,73702.0,14.79,5.01,4.93,0,*7B
1501232902.85,6644,19.13,73704.5,14.79,4.79,4.85,0,*75
1501232904.05,6645,19.13,73706.3,14.79,4.89,4.89,0,*77
1501232905.31,6646,19.13,73704.0,14.79,5.01,4.93,0,*7E
1501232906.56,6647,19.13,73706.5,14.79,4.75,4.79,0,*79
1501232907.81,6648,19.13,73700.3,14.79,4.79,4.75,0,*76
1501232908.99,6649,19.13,73702.5,14.77,4.53,4.49,0,*7E
1501232910.16,6650,19.13,73704.3,14.77,4.53,4.49,0,*76
1501232911.42,6651,19.13,73702.8,14.71,4.75,4.67,0,*79
1501232912.6,6652,19.13,73704.5,14.69,4.41,4.41,0,*70
1501232913.83,6653,19.13,73700.8,14.71,4.31,4.23,0,*7B
1501232915.01,6654,19.13,73702.3,14.69,4.33,4.33,0,*76
1501232916.19,6655,19.13,73704.3,14.69,4.45,4.53,0,*70
1501232917.39,6656,19.13,73704.0,14.67,4.41,4.37,0,*7B
1501232918.62,6657,19.13,73704.3,14.65,4.63,4.63,0,*79
1501232919.84,6658,19.13,73702.5,14.61,4.67,4.63,0,*76
1501232921.08,6659,19.13,73702.5,14.63,4.59,4.57,0,*7F
1501232922.32,6660,19.13,73704.5,14.61,4.71,4.71,0,*79
1501232923.49,6661,19.13,73700.8,14.61,4.57,4.45,0,*7B
1501232924.67,6662,19.13,73704.3,14.61,4.57,4.45,0,*78
1501232925.9,6663,19.13,73704.8,14.59,4.67,4.57,0,*72
1501232927.1,6664,19.13,73704.0,14.59,4.23,4.07,0,*70
1501232928.33,6665,19.13,73700.8,14.57,4.05,3.97,0,*75
1501232929.58,6666,19.13,73704.3,14.55,4.01,4.01,0,*78